FW0960 Weather Reports


Display with metric or nautical units.
time (UTC)temp
F
wind
direction
speed
MPH
gust
MPH
rain 1hr
in
rain 24hr
in
rain mn
in
humidity
%
barometer
mb
20260903082030 75 192 0.0 1.0 0.02 0.02 0.02 100 1017.4
20260903081523 75 192 0.0 1.0 0.01 0.01 0.01 100 1017.4
20260903081021 75 192 0.0 2.0 0.00 0.00 0.00 100 1017.8
20260903080021 75 192 1.0 2.0 0.00 0.00 0.00 100 1018.2
20260903075022 75 196 0.0 2.0 0.00 0.00 0.00 100 1018.2
20260903074517 75 204 0.0 1.0 0.00 0.00 0.00 100 1017.9
20260903074020 75 204 1.0 1.0 0.00 0.00 0.00 100 1017.7
20260903073516 75 204 0.0 1.0 0.00 0.00 0.00 100 1017.6
20260903072518 75 204 0.0 0.0 0.00 0.00 0.00 100 1017.0
20260903072010 75 204 0.0 0.0 0.00 0.00 0.00 100 1016.7
20260903070506 75 204 0.0 1.0 0.00 0.00 0.00 100 1016.7
20260903070036 74 204 0.0 0.0 0.00 0.00 0.00 100 1016.5
20260903065006 74 204 0.0 0.0 0.00 0.00 0.00 100 1016.5
20260903064506 74 204 0.0 0.0 0.00 0.00 0.00 100 1016.7
20260903064002 74 204 0.0 0.0 0.00 0.00 0.00 100 1016.8
20260903063458 74 204 0.0 0.0 0.00 0.00 0.00 100 1016.9
20260903062455 74 204 0.0 0.0 0.00 0.00 0.00 99 1016.2
20260903061950 74 204 0.0 0.0 0.00 0.00 0.00 99 1016.2
20260903061447 74 204 0.0 0.0 0.00 0.00 0.00 99 1016.7
20260903060946 74 204 0.0 0.0 0.00 0.00 0.00 99 1016.9
20260903055946 74 204 0.0 0.0 0.00 0.00 0.00 99 1017.1
20260903055447 74 204 0.0 0.0 0.00 0.00 0.00 99 1017.1
20260903054944 74 204 0.0 0.0 0.00 0.00 0.00 99 1017.3
20260903054440 74 204 0.0 0.0 0.00 0.00 0.00 99 1017.2
20260903053936 75 204 0.0 0.0 0.00 0.00 0.00 99 1017.4
20260903053438 75 204 0.0 0.0 0.00 0.01 0.00 99 1017.6
20260903052934 75 204 0.0 0.0 0.00 0.01 0.00 99 1017.5
20260903051935 75 204 0.0 0.0 0.00 0.01 0.00 99 1017.7
20260903051434 75 204 0.0 0.0 0.00 0.01 0.00 99 1017.7
20260903050941 75 204 0.0 0.0 0.00 0.02 0.00 99 1017.7
20260903050437 75 204 0.0 0.0 0.00 0.04 0.00 99 1018.0
20260903045933 75 204 0.0 0.0 0.00 0.13 0.00 99 1017.8
20260903045430 75 204 0.0 0.0 0.00 0.45 0.00 99 1017.6
20260903044932 75 204 0.0 0.0 0.00 0.67 0.00 99 1017.6
20260903044428 75 204 0.0 0.0 0.00 0.89 0.00 99 1017.5
20260903043929 75 204 0.0 0.0 0.00 0.95 0.00 99 1017.4
20260903042926 75 204 0.0 0.0 0.00 0.95 0.00 99 1017.8
20260903042420 75 204 0.0 0.0 0.00 0.95 0.00 99 1018.0
20260903041924 75 204 0.0 0.0 0.00 0.95 0.00 99 1018.1
20260903041419 75 204 0.0 0.0 0.00 0.95 0.00 99 1018.2
20260903040918 75 204 0.0 0.0 0.00 0.95 0.00 99 1018.1
20260903040415 75 204 0.0 0.0 0.00 0.95 0.00 99 1018.0
20260903035917 75 204 0.0 0.0 0.00 0.95 0.95 99 1018.0
20260903035422 75 204 0.0 0.0 0.00 0.96 0.95 99 1017.9
20260903034918 75 204 0.0 0.0 0.00 0.96 0.95 99 1018.0
20260903034419 75 204 0.0 0.0 0.00 0.96 0.95 99 1017.9
20260903033916 75 204 0.0 0.0 0.00 0.97 0.95 99 1017.7
20260903033417 75 204 0.0 0.0 0.00 0.97 0.95 99 1017.7
20260903032920 75 204 0.0 0.0 0.00 0.99 0.95 99 1017.9
20260903032417 75 204 0.0 0.0 0.00 1.01 0.95 99 1017.9
20260903031916 75 204 0.0 0.0 0.00 1.01 0.95 99 1018.2
20260903031419 75 204 0.0 0.0 0.00 1.03 0.95 99 1018.0
20260903030916 75 204 0.0 0.0 0.00 1.03 0.95 99 1017.9
20260903025911 75 204 0.0 0.0 0.00 1.03 0.95 98 1018.1
20260903025416 75 204 0.0 0.0 0.00 1.03 0.95 98 1018.1
20260903024907 75 204 0.0 0.0 0.00 1.03 0.95 98 1018.2
20260903024423 75 204 0.0 0.0 0.00 1.03 0.95 98 1018.2
20260903022912 75 204 0.0 0.0 0.00 1.03 0.95 98 1017.9
20260903022413 75 204 0.0 0.0 0.00 1.03 0.95 98 1017.8
20260903021912 75 204 0.0 0.0 0.00 1.03 0.95 98 1017.8
20260903020404 75 204 0.0 0.0 0.00 1.03 0.95 98 1017.8
20260903015404 75 204 0.0 0.0 0.00 1.03 0.95 98 1018.0
20260903014900 75 204 0.0 0.0 0.00 1.03 0.95 98 1018.0
20260903013900 75 204 0.0 0.0 0.00 1.03 0.95 98 1018.0
20260903013357 75 204 0.0 0.0 0.00 1.03 0.95 98 1018.0
20260903011851 75 204 0.0 0.0 0.00 1.03 0.95 98 1018.1
20260903011352 75 204 0.0 0.0 0.00 1.03 0.95 98 1018.3
20260903010847 75 204 0.0 0.0 0.00 1.03 0.95 98 1018.4
20260903005342 75 204 0.0 0.0 0.00 1.03 0.95 97 1018.2
20260903004846 75 204 0.0 0.0 0.00 1.03 0.95 97 1018.1
20260903003834 76 204 0.0 0.0 0.00 1.03 0.95 97 1018.0
20260903002837 76 204 0.0 0.0 0.00 1.03 0.95 97 1017.8
20260903002338 76 204 0.0 0.0 0.00 1.03 0.95 97 1017.8
20260903001833 76 204 0.0 0.0 0.00 1.03 0.95 97 1017.8
20260903001337 76 204 0.0 0.0 0.00 1.03 0.95 97 1017.8
20260903000333 76 204 0.0 0.0 0.00 1.03 0.95 97 1017.9
20260902235835 76 204 0.0 1.0 0.00 1.03 0.95 97 1017.8
20260902235332 76 204 0.0 1.0 0.00 1.03 0.95 97 1017.6
20260902234832 76 204 0.0 1.0 0.00 1.03 0.95 97 1017.6
20260902233831 76 204 0.0 0.0 0.00 1.03 0.95 97 1017.9
20260902233333 76 204 0.0 0.0 0.00 1.03 0.95 97 1018.1
20260902232330 76 204 0.0 0.0 0.00 1.03 0.95 97 1017.9
20260902231837 76 204 0.0 1.0 0.00 1.03 0.95 97 1017.8
20260902231333 76 204 0.0 1.0 0.00 1.03 0.95 97 1017.8
20260902224830 76 204 0.0 0.0 0.00 1.03 0.95 97 1017.9
20260902223834 76 204 0.0 0.0 0.00 1.03 0.95 96 1017.8
20260902223331 76 204 0.0 1.0 0.00 1.03 0.95 97 1017.8
20260902222822 76 204 0.0 1.0 0.00 1.03 0.95 96 1017.9
20260902222316 76 204 0.0 1.0 0.00 1.03 0.95 96 1018.1
20260902221311 76 204 0.0 1.0 0.00 1.03 0.95 96 1018.5
20260902220811 76 204 0.0 1.0 0.00 1.03 0.95 96 1018.5
20260902220308 76 204 0.0 1.0 0.00 1.03 0.95 96 1018.5
20260902215306 76 204 0.0 1.0 0.00 1.03 0.95 96 1018.4
20260902214807 76 204 0.0 1.0 0.00 1.03 0.95 96 1018.4
20260902213809 76 204 0.0 0.0 0.00 1.03 0.95 96 1018.3
20260902213305 76 204 0.0 1.0 0.00 1.03 0.95 96 1018.4
20260902212805 76 204 0.0 1.0 0.00 1.03 0.95 96 1018.5
20260902211804 76 204 0.0 1.0 0.00 1.03 0.95 97 1018.6
20260902210801 76 204 0.0 2.0 0.00 1.03 0.95 98 1017.8
20260902210305 76 204 1.0 2.0 0.00 1.03 0.95 97 1018.3
20260902205306 76 212 0.0 2.0 0.00 1.03 0.95 97 1017.4
20260902204806 75 211 0.0 2.0 0.00 1.03 0.95 97 1017.3
20260902204304 75 211 0.0 1.0 0.00 1.03 0.95 97 1016.7
20260902203804 76 211 0.0 1.0 0.00 1.03 0.95 97 1016.6
20260902203302 75 211 0.0 1.0 0.00 1.03 0.95 97 1016.7
20260902202805 75 211 0.0 1.0 0.00 1.03 0.95 97 1016.7
20260902202308 75 211 0.0 2.0 0.00 1.03 0.95 96 1016.6
20260902201302 76 206 1.0 2.0 0.00 1.03 0.95 95 1016.4
20260902200803 76 206 0.0 2.0 0.00 1.03 0.95 95 1016.8
20260902200304 76 205 0.0 2.0 0.00 1.03 0.95 94 1017.1
20260902195803 76 204 0.0 2.0 0.00 1.03 0.95 94 1017.4
20260902195306 76 204 0.0 3.0 0.00 1.03 0.95 94 1018.1
20260902193802 76 198 1.0 2.0 0.00 1.03 0.95 93 1019.5
20260902193307 76 198 1.0 2.0 0.00 1.03 0.95 93 1020.3
20260902191804 77 200 0.0 3.0 0.00 1.03 0.95 92 1020.2
20260902191305 77 5 0.0 2.0 0.00 1.03 0.95 91 1019.7
20260902190803 77 5 1.0 2.0 0.00 1.03 0.95 91 1019.3
20260902190306 77 5 1.0 2.0 0.00 1.03 0.95 91 1019.5
20260902185808 78 5 1.0 2.0 0.00 1.03 0.95 91 1020.0
20260902185301 78 5 1.0 2.0 0.00 1.03 0.95 91 1020.0
20260902184801 78 9 1.0 2.0 0.00 1.03 0.95 91 1019.8
20260902184307 78 9 0.0 2.0 0.00 1.03 0.95 91 1019.5
20260902183757 78 0 0.0 2.0 0.00 1.03 0.95 91 1019.6
20260902183257 78 0 0.0 2.0 0.00 1.03 0.95 92 1019.6
20260902181757 78 0 0.0 1.0 0.00 1.03 0.95 92 1020.0
20260902181251 78 0 0.0 2.0 0.00 1.03 0.95 92 1020.0
20260902180245 78 355 0.0 2.0 0.00 1.03 0.95 91 1020.0
20260902175249 78 355 0.0 2.0 0.00 1.03 0.95 91 1019.8
20260902174748 78 345 0.0 2.0 0.00 1.03 0.95 91 1020.1
20260902173749 78 344 0.0 2.0 0.00 1.03 0.95 91 1020.0
20260902173244 78 350 0.0 2.0 0.00 1.03 0.95 92 1019.8
20260902172741 78 350 0.0 2.0 0.00 1.03 0.95 92 1019.8
20260902172248 78 350 0.0 2.0 0.00 1.03 0.95 92 1019.7
20260902171745 77 350 0.0 2.0 0.00 1.03 0.95 92 1019.7
20260902171243 78 350 0.0 2.0 0.00 1.03 0.95 92 1019.8
20260902170753 78 355 0.0 2.0 0.00 1.03 0.95 93 1019.8
20260902170245 78 5 0.0 2.0 0.00 1.03 0.95 92 1019.6
20260902165751 78 0 0.0 2.0 0.00 1.03 0.95 91 1019.4
20260902165242 78 5 1.0 2.0 0.00 1.03 0.95 91 1019.3
20260902164747 78 5 1.0 2.0 0.00 1.03 0.95 92 1019.4
20260902164243 78 5 1.0 2.0 0.00 1.03 0.95 92 1019.5
20260902163744 78 5 1.0 2.0 0.00 1.03 0.95 92 1019.3
20260902163247 78 5 1.0 2.0 0.00 1.03 0.95 91 1019.3
20260902162243 79 5 0.0 2.0 0.00 1.03 0.95 91 1019.3
20260902161743 79 0 1.0 2.0 0.00 1.03 0.95 90 1019.4
20260902160243 78 0 1.0 2.0 0.00 1.03 0.95 90 1019.2
20260902155744 78 0 1.0 2.0 0.00 1.03 0.95 90 1019.3
20260902155244 78 0 1.0 2.0 0.00 1.03 0.95 92 1019.3
20260902154738 78 5 1.0 2.0 0.00 1.03 0.95 91 1019.4
20260902154243 78 346 1.0 2.0 0.00 1.03 0.95 93 1019.5
20260902153735 78 16 1.0 2.0 0.00 1.03 0.95 92 1019.4
20260902153237 78 9 1.0 2.0 0.00 1.03 0.95 92 1019.4
20260902152734 78 0 1.0 2.0 0.00 1.03 0.95 92 1019.4
20260902151731 78 9 1.0 2.0 0.00 1.03 0.95 92 1019.3
20260902151237 78 263 0.0 2.0 0.00 1.03 0.95 93 1019.6
20260902150734 78 257 0.0 2.0 0.00 1.03 0.95 94 1019.6
20260902150234 78 257 0.0 1.0 0.00 1.03 0.95 95 1019.6
20260902145731 78 257 0.0 2.0 0.00 1.03 0.95 95 1019.6
20260902145239 78 257 0.0 2.0 0.00 1.03 0.95 95 1019.7
20260902144231 77 247 0.0 2.0 0.00 1.03 0.95 95 1019.6
20260902143731 77 247 0.0 2.0 0.00 1.03 0.95 96 1019.8
20260902143230 77 247 0.0 1.0 0.00 1.03 0.95 95 1019.7
20260902142233 77 246 0.0 1.0 0.00 1.03 0.95 96 1019.6
20260902141728 77 246 0.0 2.0 0.00 1.03 0.95 96 1019.8
20260902141229 77 246 0.0 2.0 0.00 1.03 0.95 96 1019.7
20260902140727 77 204 0.0 2.0 0.00 1.03 0.95 96 1019.5
20260902140231 77 204 0.0 1.0 0.00 1.03 0.95 97 1019.4
20260902135729 76 205 0.0 1.0 0.00 1.03 0.95 97 1019.3
20260902135225 76 205 0.0 2.0 0.00 1.03 0.95 98 1019.3
20260902134725 76 205 0.0 2.0 0.00 1.03 0.95 98 1019.3
20260902134252 76 202 0.0 2.0 0.00 1.03 0.95 99 1019.1
20260902133222 76 200 0.0 0.0 0.00 1.03 0.95 99 1019.0
20260902132721 75 200 0.0 0.0 0.00 1.03 0.95 100 1018.9
20260902132217 75 200 0.0 0.0 0.00 1.03 0.95 100 1018.8
20260902130712 76 200 0.0 0.0 0.00 1.03 0.95 100 1018.8
20260902130212 75 200 0.0 0.0 0.00 1.03 0.95 100 1018.8
20260902125731 75 200 0.0 0.0 0.00 1.03 0.95 100 1018.7
20260902124709 75 200 0.0 0.0 0.00 1.03 0.95 100 1018.7
20260902123711 75 200 0.0 1.0 0.00 1.03 0.95 100 1018.8
20260902123203 75 200 0.0 2.0 0.00 1.03 0.95 100 1018.8
20260902121709 75 196 0.0 0.0 0.00 1.03 0.95 100 1018.7
20260902121205 75 196 0.0 0.0 0.00 1.03 0.95 100 1018.7
20260902120700 75 196 0.0 0.0 0.00 1.03 0.95 100 1018.8
20260902120204 75 196 0.0 0.0 0.00 1.03 0.95 100 1018.8
20260902115706 74 196 0.0 0.0 0.00 1.03 0.95 100 1018.6
20260902115206 74 196 0.0 0.0 0.00 1.03 0.95 100 1018.5
20260902114203 74 196 0.0 0.0 0.00 1.03 0.95 100 1018.6
20260902113703 74 196 0.0 0.0 0.00 1.03 0.95 100 1018.6
20260902113207 74 196 0.0 0.0 0.00 1.03 0.95 100 1018.6
20260902112210 74 196 0.0 1.0 0.00 1.03 0.95 100 1018.6
20260902111702 74 194 0.0 0.0 0.00 1.03 0.95 100 1018.5
20260902111204 74 194 0.0 1.0 0.00 1.03 0.95 100 1018.4
20260902110206 73 194 0.0 0.0 0.00 1.03 0.95 100 1018.4
20260902105707 73 194 0.0 0.0 0.00 1.03 0.95 100 1018.4
20260902105208 73 194 0.0 0.0 0.00 1.03 0.95 100 1018.2
20260902104705 73 194 0.0 0.0 0.00 1.03 0.95 100 1018.3
20260902104204 73 194 0.0 0.0 0.00 1.03 0.95 100 1018.1
20260902103702 72 194 0.0 0.0 0.00 1.03 0.95 100 1018.0
20260902103202 72 194 0.0 0.0 0.00 1.03 0.95 100 1017.9
20260902102703 72 194 0.0 0.0 0.00 1.03 0.95 100 1017.9
20260902102200 72 194 0.0 0.0 0.00 1.03 0.95 100 1017.8
20260902101705 73 194 0.0 0.0 0.00 1.03 0.95 100 1017.7
20260902101202 73 194 0.0 0.0 0.00 1.03 0.95 100 1017.7
20260902100701 73 194 0.0 0.0 0.00 1.03 0.95 100 1017.8
20260902100203 73 194 0.0 0.0 0.00 1.03 0.95 100 1017.7
20260902095709 73 194 0.0 0.0 0.00 1.03 0.95 100 1017.7
20260902095202 73 194 0.0 0.0 0.00 1.03 0.95 100 1017.6
20260902094734 73 194 0.0 0.0 0.00 1.03 0.95 100 1017.7
20260902093702 73 194 0.0 0.0 0.00 1.03 0.95 100 1017.7
20260902092709 73 194 0.0 2.0 0.00 1.03 0.95 100 1017.7
20260902091704 73 194 1.0 2.0 0.00 1.03 0.95 100 1017.4
20260902091206 73 194 1.0 2.0 0.00 1.03 0.95 100 1017.4
20260902090213 73 192 1.0 2.0 0.00 1.03 0.95 100 1017.2
20260902085705 73 194 0.0 2.0 0.00 1.03 0.95 100 1017.2
20260902085206 73 197 0.0 2.0 0.00 1.03 0.95 100 1017.1
20260902083704 73 198 1.0 2.0 0.00 1.03 0.95 100 1017.0
20260902082714 73 198 1.0 2.0 0.00 1.03 0.95 100 1016.9
20260902082209 73 197 0.0 2.0 0.00 1.03 0.95 100 1016.8